Change the Weather History Date:

Monday, April 15, 2013

  Actual Average Record
Temperature  
Mean Temperature 30 °F -  
Max Temperature 37 °F 56 °F 82 °F (2002)
Min Temperature 22 °F 31 °F 19 °F (1999)
Degree Days  
Heating Degree Days 35    
Month to date heating degree days 363  
Moisture  
Dew Point 23 °F    
Average Humidity 69    
Maximum Humidity 100    
Minimum Humidity 37    
Precipitation  
Precipitation 0.16 in - - ()
Month to date precipitation 0.46  
Year to date precipitation 2.62  
Sea Level Pressure  
Sea Level Pressure 29.85 in    
Wind  
Wind Speed 12 mph (NNW)    
Max Wind Speed 24 mph    
Max Gust Speed 30 mph    
Visibility 5 miles    
Events Fog , Snow    
Averages and records for this station are not official NWS values.
T = Trace of Precipitation, MM = Missing Value Source: NWS Daily Summary

Daily Weather History Graph

Daily Weather History Graph

Search for Another Location

Airport or City:

Trip Planner

Search our weather history database for the weather conditions in past years. The results will help you decide how hot, cold, wet, or windy it might be!

Date:

Astronomy

Apr. 15, 2013 Rise Set
Actual Time 6:21 AM MDT 7:37 PM MDT
Civil Twilight 5:53 AM MDT 8:05 PM MDT
Nautical Twilight 5:20 AM MDT 8:39 PM MDT
Astronomical Twilight 4:45 AM MDT 9:14 PM MDT
Moon 9:50 AM MDT (4/15) No Moon Set
Length of Visible Light 14h 11m
Length of Day
13h 15m
Waxing Crescent, 25% of the Moon is Illuminated
Apr 15
Waxing Crescent
Apr 18
First Quarter
Apr 25
Full
May 2
Last Quarter
May 9
New

Hourly Weather History & Observations

Time (MDT) Temp. Windchill Dew Point Humidity Pressure Visibility Wind Dir Wind Speed Gust Speed Precip Events Conditions
12:53 AM 36.0 °F 28.5 °F 12.0 °F 37% 29.71 in 10.0 mi SE 10.4 mph - N/A   Overcast
1:53 AM 37.0 °F 26.7 °F 14.0 °F 39% 29.71 in 10.0 mi South 19.6 mph 25.3 mph N/A   Overcast
2:53 AM 35.1 °F 23.8 °F 19.9 °F 54% 29.71 in 9.0 mi South 20.7 mph 26.5 mph 0.00 in   Overcast
3:53 AM 37.0 °F 28.1 °F 14.0 °F 39% 29.68 in 10.0 mi SSE 15.0 mph - N/A   Overcast
4:53 AM 36.0 °F 25.6 °F 16.0 °F 44% 29.67 in 10.0 mi SSE 18.4 mph 25.3 mph N/A   Overcast
5:53 AM 34.0 °F 22.1 °F 18.0 °F 52% 29.68 in 10.0 mi South 21.9 mph 26.5 mph N/A   Overcast
6:53 AM 30.9 °F 21.7 °F 21.9 °F 69% 29.74 in 10.0 mi West 11.5 mph - N/A   Overcast
7:53 AM 28.0 °F 21.7 °F 25.0 °F 88% 29.80 in 10.0 mi WNW 5.8 mph - N/A   Overcast
8:34 AM 28.4 °F 19.1 °F 26.6 °F 93% 29.75 in 10.0 mi West 10.4 mph - N/A   Overcast
8:43 AM 28.4 °F 19.7 °F 26.6 °F 93% 29.75 in 9.0 mi West 9.2 mph - N/A   Overcast
8:53 AM 28.0 °F 18.1 °F 26.1 °F 92% 29.82 in 4.0 mi West 11.5 mph - N/A   Overcast
9:53 AM 28.9 °F 20.4 °F 26.1 °F 89% 29.82 in 6.0 mi WNW 9.2 mph - N/A   Overcast
10:53 AM 30.0 °F 20.0 °F 27.0 °F 88% 29.81 in 10.0 mi NW 12.7 mph - N/A   Overcast
11:20 AM 30.2 °F 20.8 °F 26.6 °F 86% 29.76 in 10.0 mi NW 11.5 mph - N/A   Mostly Cloudy
11:53 AM 33.1 °F 21.9 °F 25.0 °F 72% 29.81 in 10.0 mi NW 18.4 mph 21.9 mph N/A   Mostly Cloudy
12:53 PM 33.1 °F 23.0 °F 25.0 °F 72% 29.81 in 10.0 mi North 15.0 mph - N/A   Mostly Cloudy
1:19 PM 30.2 °F 17.4 °F 26.6 °F 86% 29.78 in 3.0 mi NNW 20.7 mph - 0.00 in Snow Light Snow
1:27 PM 30.2 °F 18.9 °F 26.6 °F 86% 29.78 in 2.0 mi NNW 16.1 mph - 0.00 in Snow Light Snow
1:53 PM 30.0 °F 20.5 °F 27.0 °F 88% 29.85 in 2.0 mi NW 11.5 mph 20.7 mph 0.00 in   Overcast
2:00 PM 30.2 °F 20.2 °F 26.6 °F 86% 29.80 in 3.0 mi NW 12.7 mph - N/A   Overcast
2:31 PM 28.4 °F 18.0 °F 26.6 °F 93% 29.81 in 0.8 mi NNW 12.7 mph - 0.00 in Snow Light Snow
2:53 PM 28.0 °F 17.0 °F 27.0 °F 96% 29.88 in 0.8 mi North 13.8 mph - 0.00 in Snow Light Snow
3:53 PM 27.0 °F 16.1 °F 26.1 °F 96% 29.88 in 1.0 mi NNW 12.7 mph - 0.00 in Snow Light Snow
4:07 PM 26.6 °F 16.8 °F 26.6 °F 100% 29.82 in 0.5 mi North 10.4 mph - 0.00 in Fog , Snow Snow
4:53 PM 25.0 °F 14.8 °F 24.1 °F 96% 29.92 in 0.5 mi NNW 10.4 mph - 0.00 in Fog , Snow Snow
5:53 PM 25.0 °F 17.1 °F 24.1 °F 96% 29.94 in 0.5 mi North 6.9 mph - 0.02 in Fog , Snow Snow
6:53 PM 23.0 °F 14.7 °F 23.0 °F 100% 30.00 in 0.2 mi NE 6.9 mph - 0.02 in Fog , Snow Snow
7:53 PM 23.0 °F 17.0 °F 21.9 °F 96% 30.01 in 0.2 mi NNE 4.6 mph - 0.04 in Fog , Snow Snow
8:53 PM 21.9 °F 12.5 °F 21.9 °F 100% 30.09 in 1.0 mi North 8.1 mph - 0.03 in Snow Light Snow
9:00 PM 21.2 °F 12.6 °F 21.2 °F 100% 29.94 in 0.5 mi North 6.9 mph - 0.00 in Fog , Snow Snow
9:13 PM 21.2 °F 16.4 °F 21.2 °F 100% 29.95 in 1.0 mi NNE 3.5 mph - 0.01 in Snow Light Snow
9:51 PM 21.2 °F - 21.2 °F 100% 29.97 in 0.8 mi Calm Calm - 0.02 in Snow Light Snow
9:53 PM 21.9 °F - 21.0 °F 96% 30.10 in 0.8 mi Calm Calm - 0.02 in Snow Light Snow
10:53 PM 21.9 °F - 21.0 °F 96% 30.10 in 0.8 mi Calm Calm - 0.02 in Snow Light Snow
11:39 PM 21.2 °F 16.4 °F 21.2 °F 100% 29.97 in 2.0 mi ESE 3.5 mph - 0.01 in Snow Light Snow
11:53 PM 21.9 °F - 21.9 °F 100% 30.08 in 2.0 mi Calm Calm - 0.01 in Snow Light Snow